Change the Weather History Date:

Friday, November 15, 2013

  Actual Average Record
Temperature  
Mean Temperature 51 °F 56 °F  
Max Temperature 64 °F 68 °F 82 °F (2011)
Min Temperature 37 °F 45 °F 30 °F (2004)
Degree Days  
Heating Degree Days 14 9  
Month to date heating degree days 152 114  
Since 1 July heating degree days 212 203  
Cooling Degree Days 0 0  
Month to date cooling degree days 8 11  
Year to date cooling degree days 2212 2253  
Moisture  
Dew Point 43 °F    
Average Humidity 72    
Maximum Humidity 86    
Minimum Humidity 53    
Precipitation  
Precipitation 0.00 in 0.09 in 1.21 in (2012)
Month to date precipitation 1.08 1.42  
Year to date precipitation 46.07 40.63  
Sea Level Pressure  
Sea Level Pressure 30.28 in    
Wind  
Wind Speed 1 mph (North)    
Max Wind Speed 7 mph    
Max Gust Speed 12 mph    
Visibility 10 miles    
Events      
T = Trace of Precipitation, MM = Missing Value Source: NWS Daily Summary

Daily Weather History Graph

Daily Weather History Graph

Search for Another Location

Airport or City:

Trip Planner

Search our weather history database for the weather conditions in past years. The results will help you decide how hot, cold, wet, or windy it might be!

Date:

Astronomy

Nov. 15, 2013 Rise Set
Actual Time 6:56 AM EST 5:20 PM EST
Civil Twilight 6:30 AM EST 5:46 PM EST
Nautical Twilight 5:59 AM EST 6:17 PM EST
Astronomical Twilight 5:30 AM EST 6:46 PM EST
Moon 4:12 PM EST (11/15) 4:56 AM EST (11/15)
Length of Visible Light 11h 16m
Length of Day
10h 23m
Waxing Gibbous, 96% of the Moon is Illuminated
Nov 15
Waxing Gibbous
Nov 17
Full
Nov 25
Last Quarter
Dec 2
New
Dec 9
First Quarter

Hourly Weather History & Observations

Time (EST) Temp. Dew Point Humidity Pressure Visibility Wind Dir Wind Speed Gust Speed Precip Events Conditions
12:53 AM 37.0 °F 30.9 °F 79% 30.36 in 10.0 mi Calm Calm - N/A   Clear
1:53 AM 37.0 °F 32.0 °F 82% 30.36 in 8.0 mi Calm Calm - N/A   Mostly Cloudy
2:53 AM 37.9 °F 32.0 °F 79% 30.34 in 10.0 mi Calm Calm - N/A   Scattered Clouds
3:53 AM 39.0 °F 33.1 °F 79% 30.33 in 10.0 mi Calm Calm - N/A   Mostly Cloudy
4:53 AM 41.0 °F 33.1 °F 73% 30.34 in 10.0 mi Calm Calm - N/A   Partly Cloudy
5:53 AM 42.1 °F 35.1 °F 76% 30.33 in 10.0 mi Calm Calm - N/A   Scattered Clouds
6:53 AM 42.1 °F 35.1 °F 76% 30.34 in 10.0 mi Calm Calm - N/A   Partly Cloudy
7:53 AM 44.1 °F 36.0 °F 73% 30.33 in 10.0 mi Calm Calm - N/A   Clear
8:53 AM 48.0 °F 37.0 °F 66% 30.35 in 10.0 mi Calm Calm - N/A   Clear
9:53 AM 51.1 °F 39.0 °F 63% 30.35 in 10.0 mi Calm Calm - N/A   Clear
10:53 AM 55.0 °F 39.9 °F 57% 30.33 in 10.0 mi Variable 3.5 mph - N/A   Clear
11:53 AM 59.0 °F 42.1 °F 53% 30.30 in 10.0 mi Calm Calm - N/A   Partly Cloudy
12:53 PM 61.0 °F 44.1 °F 54% 30.27 in 10.0 mi Calm Calm - N/A   Mostly Cloudy
1:53 PM 64.0 °F 50.0 °F 60% 30.22 in 10.0 mi Variable 3.5 mph - N/A   Partly Cloudy
2:53 PM 63.0 °F 50.0 °F 63% 30.22 in 10.0 mi Variable 3.5 mph - N/A   Overcast
3:53 PM 63.0 °F 50.0 °F 63% 30.19 in 10.0 mi Variable 3.5 mph - N/A   Mostly Cloudy
4:53 PM 62.1 °F 51.1 °F 67% 30.20 in 10.0 mi Calm Calm - N/A   Overcast
5:53 PM 61.0 °F 52.0 °F 72% 30.21 in 10.0 mi Calm Calm - N/A   Mostly Cloudy
6:53 PM 60.1 °F 52.0 °F 75% 30.21 in 10.0 mi Calm Calm - N/A   Overcast
7:53 PM 59.0 °F 52.0 °F 78% 30.20 in 10.0 mi Calm Calm - N/A   Overcast
8:53 PM 57.9 °F 53.1 °F 84% 30.21 in 10.0 mi Calm Calm - N/A   Overcast
9:53 PM 57.9 °F 53.1 °F 84% 30.22 in 9.0 mi Calm Calm - N/A   Overcast
10:53 PM 57.0 °F 54.0 °F 89% 30.22 in 10.0 mi Calm Calm - N/A   Overcast
11:53 PM 57.0 °F 54.0 °F 89% 30.22 in 10.0 mi Calm Calm - N/A   Overcast